When you browse on this site, cookies collect data to enhance your experience and personalize the content and advertising you see.
Visit our Privacy Policy to learn more. By continuing to use the site, you agree to this use of cookies and data.
  • In United Kingdom
  • List of Countries
  • For 7 days
  • Water Temperature
  • Weather Map
  • Weather Widgets
  • user-avatar
    Login

    Hourly Weather Artigas

    Today, 19 September, Thursday

    Time Temperature Precipitation Wind Pressure Humidity
    00:00 +11°C° 0 mm 3 mps 744 mmHg 79%
    01:00 +11°C° 0 mm 3 mps 743 mmHg 81%
    02:00 +11°C° 0 mm 3 mps 743 mmHg 82%
    03:00 +10°C° 0 mm 3 mps 743 mmHg 84%
    04:00 +10°C° 0 mm 3 mps 743 mmHg 87%
    05:00 +10°C° 0 mm 2 mps 743 mmHg 89%
    06:00 +12°C° 0 mm 3 mps 743 mmHg 85%
    07:00 +13°C° 0 mm 3 mps 744 mmHg 80%
    08:00 +16°C° 0 mm 3 mps 744 mmHg 76%
    09:00 +18°C° 0 mm 3 mps 744 mmHg 69%
    10:00 +20°C° 0 mm 2 mps 744 mmHg 62%
    11:00 +23°C° 0 mm 2 mps 744 mmHg 55%
    12:00 +23°C° 0 mm 2 mps 744 mmHg 54%
    13:00 +24°C° 0 mm 2 mps 744 mmHg 53%
    14:00 +25°C° 0 mm 2 mps 744 mmHg 52%
    15:00 +24°C° 0 mm 3 mps 744 mmHg 60%
    16:00 +21°C° 0 mm 3 mps 744 mmHg 69%
    17:00 +20°C° 0 mm 4 mps 744 mmHg 78%
    18:00 +19°C° 0 mm 4 mps 745 mmHg 82%
    19:00 +17°C° 0 mm 4 mps 746 mmHg 85%
    20:00 +15°C° 0 mm 4 mps 747 mmHg 89%
    21:00 +14°C° 0 mm 5 mps 747 mmHg 89%
    22:00 +13°C° 0 mm 5 mps 748 mmHg 88%
    23:00 +11°C° 0 mm 6 mps 748 mmHg 88%

    Tomorrow, 20 September, Friday

    Time Temperature Precipitation Wind Pressure Humidity
    00:00 +10°C° 0 mm 6 mps 748 mmHg 86%
    01:00 +10°C° 0 mm 6 mps 749 mmHg 84%
    02:00 +9°C° 0 mm 6 mps 749 mmHg 82%
    03:00 +9°C° 0 mm 6 mps 749 mmHg 79%
    04:00 +8°C° 0 mm 6 mps 750 mmHg 76%
    05:00 +8°C° 0 mm 6 mps 750 mmHg 73%
    06:00 +9°C° 0 mm 6 mps 751 mmHg 70%
    07:00 +10°C° 0 mm 6 mps 751 mmHg 68%
    08:00 +11°C° 0 mm 7 mps 752 mmHg 65%
    09:00 +13°C° 0 mm 6 mps 752 mmHg 63%
    10:00 +14°C° 0 mm 6 mps 752 mmHg 61%
    11:00 +16°C° 0 mm 6 mps 752 mmHg 59%
    12:00 +16°C° 0 mm 5 mps 752 mmHg 58%
    13:00 +17°C° 0 mm 5 mps 751 mmHg 57%
    14:00 +17°C° 0 mm 5 mps 751 mmHg 56%
    15:00 +17°C° 0 mm 4 mps 751 mmHg 61%
    16:00 +15°C° 0 mm 4 mps 752 mmHg 66%
    17:00 +16°C° 0 mm 3 mps 752 mmHg 71%
    18:00 +13°C° 0 mm 4 mps 752 mmHg 73%
    19:00 +11°C° 0 mm 4 mps 753 mmHg 75%
    20:00 +10°C° 0 mm 4 mps 753 mmHg 77%
    21:00 +8°C° 0 mm 4 mps 754 mmHg 77%
    22:00 +8°C° 0 mm 3 mps 754 mmHg 77%
    23:00 +8°C° 0 mm 3 mps 754 mmHg 77%

    Day after tomorrow, 21 September, Saturday

    Time Temperature Precipitation Wind Pressure Humidity
    00:00 +7°C° 0 mm 3 mps 754 mmHg 77%
    01:00 +7°C° 0 mm 3 mps 754 mmHg 76%
    02:00 +7°C° 0 mm 3 mps 754 mmHg 76%
    03:00 +5°C° 0 mm 3 mps 754 mmHg 76%
    04:00 +5°C° 0 mm 3 mps 754 mmHg 76%
    05:00 +5°C° 0 mm 3 mps 754 mmHg 76%
    06:00 +8°C° 0 mm 3 mps 755 mmHg 72%
    07:00 +10°C° 0 mm 3 mps 755 mmHg 67%
    08:00 +12°C° 0 mm 3 mps 755 mmHg 62%
    09:00 +13°C° 0 mm 3 mps 755 mmHg 56%
    10:00 +16°C° 0 mm 3 mps 755 mmHg 50%
    11:00 +18°C° 0 mm 3 mps 755 mmHg 44%
    12:00 +19°C° 0 mm 2 mps 755 mmHg 43%
    13:00 +19°C° 0 mm 2 mps 754 mmHg 42%
    14:00 +20°C° 0 mm 2 mps 753 mmHg 41%
    15:00 +19°C° 0 mm 2 mps 753 mmHg 47%
    16:00 +18°C° 0 mm 2 mps 754 mmHg 52%
    17:00 +18°C° 0 mm 1 mps 754 mmHg 58%
    18:00 +15°C° 0 mm 2 mps 754 mmHg 60%
    19:00 +14°C° 0 mm 2 mps 754 mmHg 63%
    20:00 +12°C° 0 mm 2 mps 755 mmHg 65%
    21:00 +10°C° 0 mm 2 mps 755 mmHg 66%
    22:00 +10°C° 0 mm 2 mps 755 mmHg 68%
    23:00 +9°C° 0 mm 2 mps 755 mmHg 69%

    22 September, Sunday

    Time Temperature Precipitation Wind Pressure Humidity
    00:00 +9°C° 0 mm 2 mps 755 mmHg 70%
    01:00 +9°C° 0 mm 2 mps 755 mmHg 70%
    02:00 +8°C° 0 mm 2 mps 755 mmHg 71%
    03:00 +8°C° 0 mm 2 mps 755 mmHg 71%
    04:00 +8°C° 0 mm 2 mps 756 mmHg 71%
    05:00 +8°C° 0 mm 2 mps 756 mmHg 71%
    06:00 +10°C° 0 mm 2 mps 756 mmHg 68%
    07:00 +13°C° 0 mm 2 mps 757 mmHg 65%
    08:00 +15°C° 0 mm 2 mps 757 mmHg 62%
    09:00 +17°C° 0 mm 3 mps 758 mmHg 59%
    10:00 +19°C° 0 mm 3 mps 758 mmHg 56%
    11:00 +20°C° 0 mm 4 mps 758 mmHg 53%
    12:00 +21°C° 0 mm 4 mps 757 mmHg 52%
    13:00 +21°C° 0 mm 4 mps 757 mmHg 52%
    14:00 +21°C° 0 mm 4 mps 756 mmHg 51%
    15:00 +20°C° 0 mm 4 mps 756 mmHg 58%
    16:00 +19°C° 0 mm 3 mps 756 mmHg 65%
    17:00 +18°C° 0 mm 3 mps 756 mmHg 72%
    18:00 +17°C° 0 mm 4 mps 756 mmHg 75%
    19:00 +14°C° 0 mm 5 mps 756 mmHg 78%
    20:00 +11°C° 0 mm 6 mps 756 mmHg 81%
    21:00 +11°C° 0 mm 6 mps 756 mmHg 79%
    22:00 +10°C° 0 mm 6 mps 756 mmHg 77%
    23:00 +9°C° 0 mm 6 mps 756 mmHg 75%

    23 September, Monday

    Time Temperature Precipitation Wind Pressure Humidity
    00:00 +9°C° 0 mm 6 mps 755 mmHg 78%
    01:00 +8°C° 0 mm 6 mps 755 mmHg 80%
    02:00 +8°C° 0 mm 6 mps 755 mmHg 82%
    03:00 +7°C° 0 mm 6 mps 755 mmHg 79%
    04:00 +7°C° 0 mm 6 mps 755 mmHg 75%
    05:00 +5°C° 0 mm 7 mps 755 mmHg 71%
    06:00 +6°C° 0 mm 7 mps 755 mmHg 70%
    07:00 +7°C° 0 mm 8 mps 755 mmHg 68%
    08:00 +10°C° 0 mm 8 mps 755 mmHg 67%
    09:00 +12°C° 0 mm 8 mps 755 mmHg 68%
    10:00 +15°C° 0 mm 7 mps 755 mmHg 69%
    11:00 +17°C° 0 mm 7 mps 755 mmHg 69%
    12:00 +19°C° 0 mm 6 mps 754 mmHg 68%
    13:00 +20°C° 0 mm 6 mps 753 mmHg 67%
    14:00 +21°C° 0 mm 6 mps 753 mmHg 66%
    15:00 +20°C° 0 mm 5 mps 753 mmHg 70%
    16:00 +20°C° 0 mm 4 mps 752 mmHg 74%
    17:00 +19°C° 0 mm 4 mps 752 mmHg 78%
    18:00 +17°C° 0 mm 4 mps 753 mmHg 82%
    19:00 +14°C° 0 mm 4 mps 753 mmHg 86%
    20:00 +13°C° 0 mm 4 mps 753 mmHg 90%
    21:00 +12°C° 0 mm 4 mps 753 mmHg 90%
    22:00 +11°C° 0 mm 4 mps 753 mmHg 91%
    23:00 +11°C° 0 mm 4 mps 754 mmHg 91%

    24 September, Tuesday

    Time Temperature Precipitation Wind Pressure Humidity
    00:00 +10°C° 0 mm 3 mps 753 mmHg 92%
    01:00 +9°C° 0 mm 3 mps 753 mmHg 93%
    02:00 +9°C° 0 mm 3 mps 753 mmHg 93%
    03:00 +9°C° 0 mm 3 mps 753 mmHg 92%
    04:00 +8°C° 0 mm 3 mps 753 mmHg 92%
    05:00 +8°C° 0 mm 3 mps 753 mmHg 91%
    06:00 +10°C° 0 mm 3 mps 754 mmHg 85%
    07:00 +12°C° 0 mm 4 mps 754 mmHg 79%
    08:00 +14°C° 0 mm 4 mps 754 mmHg 73%
    09:00 +17°C° 0 mm 4 mps 755 mmHg 67%
    10:00 +19°C° 0 mm 5 mps 755 mmHg 61%
    11:00 +21°C° 0 mm 5 mps 755 mmHg 56%
    12:00 +21°C° 0 mm 5 mps 754 mmHg 55%
    13:00 +22°C° 0 mm 5 mps 754 mmHg 53%
    14:00 +22°C° 0 mm 6 mps 754 mmHg 52%
    15:00 +21°C° 0 mm 5 mps 754 mmHg 58%
    16:00 +20°C° 0 mm 4 mps 754 mmHg 64%
    17:00 +19°C° 0 mm 4 mps 754 mmHg 71%
    18:00 +17°C° 0 mm 4 mps 754 mmHg 75%
    19:00 +14°C° 0 mm 3 mps 754 mmHg 80%
    20:00 +12°C° 0 mm 3 mps 754 mmHg 84%
    21:00 +12°C° 0 mm 3 mps 754 mmHg 86%
    22:00 +11°C° 0 mm 3 mps 755 mmHg 88%
    23:00 +11°C° 0 mm 3 mps 755 mmHg 90%
    Show more